Regional Weather Roundup
Issued by NWS Cleveland, OH

Home | Current Version | Previous Version | Text Only | Print | Product List | Glossary Off
Versions: 1 2 3 4 5 6 7 8 9 10 11 12 13 14 15 16 17 18 19 20 21 22 23 24 25 26 27 28 29 30 31 32 33 34 35 36 37 38 39 40 41 42 43 44 45 46 47 48 49 50

000
ASUS41 KCLE 301602
RWRCLE
OHIO REGIONAL WEATHER ROUNDUP
NATIONAL WEATHER SERVICE CLEVELAND, OH
1200 PM EDT SUN APR 30 2017

NOTE: "FAIR" INDICATES FEW OR NO CLOUDS BELOW 12,000 FEET WITH NO
SIGNIFICANT WEATHER AND/OR OBSTRUCTIONS TO VISIBILITY.

OHZ001>008-015>018-024>027-034-035-043-044-301700-
   NORTHWEST OHIO

CITY           SKY/WX    TMP DP  RH WIND       PRES   REMARKS
DEFIANCE       LGT RAIN  52  51  97 NE9       29.89F FOG
FINDLAY        CLOUDY    73  64  73 S16       29.88F
TOLEDO EXPRESS LGT RAIN  52  50  93 E12       29.91F
TOLEDO EXEC    CLOUDY    54  52  93 NE12      29.93F
LIMA           CLOUDY    73  66  78 S20G30    29.89R
$$

OHZ009>014-019>023-028>033-038-089-301700-
   NORTHEAST OHIO

CITY           SKY/WX    TMP DP  RH WIND       PRES   REMARKS
CLE-HOPKINS    CLOUDY    79  64  60 SW13G22   29.96F
CLE-LAKEFRONT  CLOUDY    60  54  80 NE8       29.93F
CUY CO. ARPT   MOSUNNY   79  66  65 SW12G21   29.97R
LORAIN-ELYRIA  CLOUDY    76  64  66 S16G25    29.93F
ASHTABULA      CLOUDY    74  64  71 S6        29.99F
AKRON-CANTON   CLOUDY    79  65  62 SW17      29.99S
WOOSTER        CLOUDY    76  65  68 S18G25    29.98S
MANSFIELD      CLOUDY    77  66  68 S18G29    29.96F
YOUNGSTOWN     CLOUDY    77  65  66 S9        30.00S
$$

OHZ042-051>053-060>062-070>072-077>081-301700-
  SOUTHWEST OHIO

CITY           SKY/WX    TMP DP  RH WIND       PRES   REMARKS
CINC-COVINGTON CLOUDY    76  65  68 S14G28    29.93R
CINC-LUNKEN    CLOUDY    78  66  66 SW21G35   29.93R
HAMILTON       CLOUDY    77  67  71 SW10G26   29.93R
DAYTON         CLOUDY    75  66  73 S15       29.92R
WRIGHT-PAT AFB CLOUDY    78  68  69 S18G29    29.91S
DAYTON GENERAL PTSUNNY   77  63  61 SW20G35   29.92R
WILMINGTON     PTSUNNY   77  65  66 SW22G35   29.94R
$$

OHZ036-037-039>041-045>050-054>059-063>069-073>076-082>088-301700-
  CENTRAL AND SOUTHEAST OHIO

CITY           SKY/WX    TMP DP  RH WIND       PRES   REMARKS
COLUMBUS       PTSUNNY   81  66  60 S18       29.96S
OSU AIRPORT    MOSUNNY   80  67  64 S20G29    29.94F
BOLTON FIELD   MOSUNNY   79  68  69 S16       29.96F
RICKENBACK AFB MOSUNNY   80  67  66 S17G24    29.95F
NEWARK         MOSUNNY   81  64  56 S17G29    29.97S
MARION         SUNNY     79  65  62 S23G32    29.94F
LANCASTER      CLOUDY    81  65  58 S22G31    29.98R
ZANESVILLE     MOSUNNY   82  63  52 S15G22    29.99S
NEW PHILLY     NOT AVBL
$$



USA.gov is the U.S. government's official web portal to all federal, state and local government web resources and services.